Regional Weather Roundup
Issued by NWS

Home | Current Version | Previous Version | Graphics & Text | Print | Product List | Glossary On
Versions: 1 2 3 4 5 6 7 8 9 10 11 12 13 14 15 16 17 18 19 20 21 22 23 24 25 26 27 28 29 30 31 32 33 34 35 36 37 38 39 40 41 42 43 44 45 46 47 48 49
000
ASUS45 KCYS 291310
RWRWY

WYOMING REGIONAL WEATHER ROUNDUP
NATIONAL WEATHER SERVICE CHEYENNE WY
700 AM MDT SAT AUG 29 2015

NOTE:  "FAIR" INDICATES FEW OR NO CLOUDS BELOW 12,000 FEET
WITH NO SIGNIFICANT WEATHER AND/OR OBSTRUCTIONS TO VISIBILITY.

WYZ001-291400-
YELLOWSTONE NATIONAL PARK

CITY           SKY/WX    TMP DP  RH WIND       PRES   REMARKS
LK YELLOWSTONE   N/A     41  37  86 CALM      30.35S
W YELLOWSTONE  NOT AVBL

$$
WYZ002>013-054>058-071-098>099-291400-
NORTHERN WYOMING

CITY           SKY/WX    TMP DP  RH WIND       PRES   REMARKS
JACKSON        FAIR      43  41  93 N6        30.28R
CODY           FAIR      64  37  36 SW5       30.11S
GREYBULL       FAIR      54  38  54 CALM      30.06R
WORLAND        FAIR      51  43  74 CALM      30.07S
SHERIDAN       FAIR      50  43  77 CALM      30.04R
BUFFALO        FAIR      69  34  27 SW7       30.11S
GILLETTE       FAIR      61  41  47 VRB5      30.10R
HULETT         FAIR      68  41  37 SW5       30.11R
NEWCASTLE      FAIR      66  37  34 SE7       30.13F

$$
WYZ014>020-022>026-101>103-291400-
CENTRAL WYOMING

CITY           SKY/WX    TMP DP  RH WIND       PRES   REMARKS
BIG PINEY      FAIR      41  32  70 CALM      30.33R
PINEDALE       FAIR      37  36  93 W6        30.34S WCI  33
DUBOIS         FAIR      45  34  65 NW12      30.32R
LANDER         FAIR      58  35  42 W5        30.18R
RIVERTON       FAIR      52  43  71 NW9       30.19R
CASPER         FAIR      58  38  47 SW12      30.19R
DOUGLAS        FAIR      50  39  66 CALM      30.19R

$$
WYZ021-027>030-104>119-291400-
SOUTHERN WYOMING

CITY           SKY/WX    TMP DP  RH WIND       PRES   REMARKS
EVANSTON       FAIR      59  33  37 SE6       30.30S
KEMMERER       FAIR      48  34  57 N9        30.32S
FORT BRIDGER   SUNNY     55  34  44 S6        30.33S
ROCK SPRINGS   FAIR      57  32  38 S10       30.30R
DIXON          FAIR      48  38  67 E3        30.35S
RAWLINS        FAIR      43  37  79 N5        30.33R
SARATOGA       FAIR      52  41  66 S9        30.36S
LARAMIE        FAIR      44  38  79 S6        30.37R
CHEYENNE       FAIR      52  44  74 W6        30.29R
TORRINGTON     FAIR      53  45  74 E5        30.16R
PINE BLUFFS    FAIR      45  41  87 W5        30.25S

$$



USA.gov is the U.S. government's official web portal to all federal, state and local government web resources and services.